Home > Weather > Kalisz > Past weeks

Flag for Poland Past Weather in Kalisz, Poland — Yesterday and Last 2 Weeks

Now
65 °F

Passing clouds.


Feels Like: 65 °F
Forecast: 64 / 80 °F
Wind: 2 mph from North

Location: Kalisz

Current Time: Jul 27, 2016 at 3:17:37 AM

Latest Report: Jul 27, 2016 at 2:00 AM


Visibility: 7 mi

Pressure: 30.05 "Hg

Humidity: 91%

Dew Point: 62 °F

Location of KaliszLocation

Past Weather in Kalisz — Graph

°F

Kalisz Temperature Yesterday

Maximum temperature yesterday: 85 °F (at 5:00 PM)
Minimum temperature yesterday: 64 °F (at 5:00 AM)
Average temperature yesterday: 75 °F

High & Low Weather Summary for the Past Weeks

 TemperatureHumidityPressure
High85 °F (Jul 26, 5:00 PM)100% (Jul 14, 1:00 PM)30.23 "Hg (Jul 14, 1:00 PM)
Low52 °F (Jul 14, 11:00 PM)32% (Jul 22, 4:00 PM)29.50 "Hg (Jul 14, 3:00 PM)
Average66 °F77%30.01 "Hg
* Reported Jul 12 2:00 AM — Jul 27 2:00 AM, Kalisz, Weather by CustomWeather, © 2016

Note: Actual official high and low records may vary slightly from our data, if they occured in-between our weather recording intervals... More about our weather records

Advertising

Kalisz Weather History for the Previous 24 Hours

Scroll right to see more
 ConditionsComfort  
Time TempWeatherWind HumidityBarometerVisibility
2:00 AM
Wed, Jul 27
65 °FPassing clouds.2 mph91%30.05 "Hg7 mi
1:00 AM66 °FOvercast.3 mph88%30.06 "Hg7 mi
12:00 AM67 °FOvercast.3 mph87%30.06 "Hg7 mi
11:00 PM
Tue, Jul 26
69 °FOvercast.3 mph82%30.06 "Hg8 mi
10:00 PM72 °FOvercast.3 mph72%30.05 "Hg11 mi
9:00 PM74 °FOvercast.2 mph67%30.03 "Hg12 mi
8:00 PM79 °FOvercast.2 mph54%30.02 "Hg15 mi
7:00 PM82 °FOvercast.1 mph50%30.01 "Hg17 mi
6:00 PM83 °FOvercast.2 mph50%29.99 "Hg19 mi
5:00 PM85 °FOvercast.2 mph47%29.99 "Hg13 mi
4:00 PM84 °FOvercast.2 mph44%29.98 "Hg19 mi
3:00 PM84 °FOvercast.1 mph41%30.00 "Hg19 mi
2:00 PM83 °FOvercast.2 mph48%30.01 "Hg17 mi
1:00 PM83 °FOvercast.2 mph47%30.03 "Hg16 mi
12:00 PM82 °FPartly sunny.2 mph51%30.03 "Hg13 mi
11:00 AM80 °FPartly sunny.2 mph55%30.04 "Hg17 mi
10:00 AM79 °FPartly sunny.1 mph61%30.04 "Hg17 mi
9:00 AM76 °FScattered clouds.2 mph68%30.04 "Hg11 mi
8:00 AM71 °FPassing clouds.1 mph80%30.04 "Hg9 mi
7:00 AM68 °FScattered clouds.1 mph89%30.05 "Hg6 mi
6:00 AM65 °FOvercast.1 mph93%30.05 "Hg6 mi
5:00 AM64 °FOvercast.1 mph94%30.05 "Hg6 mi
4:00 AM65 °FPassing clouds.2 mph92%30.05 "Hg6 mi
3:00 AM66 °FPassing clouds.2 mph90%30.05 "Hg7 mi
Weather by CustomWeather, © 2016

See weather overviewHow to use our weather pages